Location: Biltmore Gardens
(41.6070°N, 83.4666°W)
Time: 14:01:00
(UTC+00:00)

Cosmos 1727 Rocket - Pass Details

Date: 14 July 2020
Orbit: 961 x 996 km, 82.9° (Epoch: 04 August)

Event Time Altitude Azimuth Distance (km) Brightness Sun altitude
Rises 04:52:09 0° 350° (N) 3,684 8.4 -25.8°
Reaches altitude 10° 04:54:40 10° 348° (NNW) 2,737 7.4 -25.9°
Maximum altitude 05:00:54 71° 266° (W) 1,038 4.0 -26.1°
Enters shadow 05:02:04 58° 210° (SSW) 1,139 4.0 -26.2°
